Location: Ciserano
(45.5833°N, 9.6000°E)
Time: 05:58:09
(UTC+00:00)

Cosmos 1844 Rocket - Pass Details

Date: 29 November 2020
Orbit: 824 x 845 km, 71.0° (Epoch: 27 January)

Event Time Altitude Azimuth Distance (km) Brightness Sun altitude
Rises 04:09:43 0° 183° (S) 3,371 5.9 -25.6°
Reaches altitude 10° 04:12:15 10° 176° (S) 2,444 5.2 -25.1°
Maximum altitude 04:17:29 42° 107° (ESE) 1,184 3.9 -24.2°
Drops below altitude 10° 04:22:47 10° 38° (NE) 2,471 5.5 -23.3°
Sets 04:25:21 0° 32° (NNE) 3,412 6.2 -22.8°
